Flag for U.S.A. Weather past 2 weeks in Atlantic City, New Jersey, U.S.A.

Now
84 °F

Sunny.


Feels Like: 88 °F
Forecast: 72 / 83 °F
Wind: 8 mph from Northeast

Location: Atlantic City International Airport

Current Time: Sep 1, 2015 at 11:12:12 AM

Latest Report: Sep 1, 2015 at 9:54 AM


Visibility: 10 mi

Pressure: 30.04 "Hg

Humidity: 63%

Dew point: 70 °F

Location of Atlantic CityLocation

Historic Weather in Atlantic City — Graph

°F

Atlantic City temperature yesterday

Maximum temperature yesterday: 90 °F (at 2:54 PM)
Minimum temperature yesterday: 74 °F (at 5:54 AM)
Average temperature yesterday: 80 °F

Past Weeks' High & Low Weather Summary

 TemperatureHumidityPressure
High91 °F (Aug 17, 12:54 PM)97% (Aug 21, 6:54 AM)30.23 "Hg (Aug 21, 6:54 AM)
Low56 °F (Aug 29, 4:54 AM)33% (Aug 28, 12:54 PM)29.84 "Hg (Aug 25, 3:54 PM)
Average76 °F69%30.03 "Hg
* Reported Aug 17 9:54 AM — Sep 1 9:54 AM, Atlantic City, Weather by CustomWeather, © 2015

Note: Actual official high and low records may vary slightly from our data, if they occured in-between our weather recording intervals... More about our weather records

Advertising

Atlantic City weather history for previous 24 hours

 ConditionsComfort  
Time TempWeatherWind HumidityBarometerVisibility
9:54 AM
Tue, Sep 1
84 °FSunny.8 mph63%30.04 "Hg10 mi
8:54 AM78 °FSunny.7 mph76%30.04 "Hg10 mi
7:54 AM74 °FSunny.5 mph91%30.04 "Hg8 mi
6:54 AM71 °FFog.5 mph93%30.03 "Hg6 mi
5:54 AM72 °FClear.5 mph91%30.02 "Hg8 mi
4:54 AM72 °FClear.6 mph93%30.02 "Hg9 mi
3:54 AM73 °FClear.6 mph90%30.02 "Hg10 mi
2:54 AM73 °FClear.6 mph90%30.02 "Hg10 mi
1:54 AM74 °FClear.6 mph88%30.03 "Hg10 mi
12:54 AM75 °FClear.6 mph82%30.04 "Hg10 mi
10:54 PM
Mon, Aug 31
76 °FClear.8 mph77%30.04 "Hg10 mi
9:54 PM77 °FClear.5 mph69%30.03 "Hg10 mi
8:54 PM79 °FClear.8 mph65%30.03 "Hg10 mi
7:54 PM81 °FSunny.9 mph58%30.01 "Hg10 mi
6:54 PM83 °FSunny.12 mph53%30.01 "Hg10 mi
5:54 PM86 °FSunny.12 mph46%30.01 "Hg10 mi
4:54 PM87 °FSunny.15 mph48%30.01 "Hg10 mi
3:54 PM88 °FSunny.8 mph45%30.01 "Hg10 mi
2:54 PM90 °FSunny.10 mph47%30.01 "Hg10 mi
1:54 PM88 °FSunny.12 mph50%30.04 "Hg10 mi
12:54 PM87 °FSunny.8 mph51%30.06 "Hg10 mi
11:54 AM86 °FSunny.8 mph55%30.07 "Hg9 mi
Weather by CustomWeather, © 2015

See weather overviewHow to use our weather pages